Torna al catalogo

FENGYUN 1C DEB

AttivoSSO
NORAD 35239·DEBRIS·🇨🇳 China

Lanciato May 10, 1999 da Taiyuan Satellite Launch Center

Loading…

Prossimi Passaggi (prossime 24 ore)

TLE

AggiornatoSource: Space-Track

Epoca: Sep 14, 2026, 09:21 UTC

1 35239U 99025DQX 26257.39023519  .00000575  00000-0  59269-3 0  9992
2 35239  99.2976  53.3233 0221609  12.1005 348.5346 13.69886277619044

Traccia FENGYUN 1C DEB in tempo reale con AllMySat

Download on the App Store